Regional Weather Roundup
Issued by NWS

Home | Current Version | Previous Version | Graphics & Text | Print | Product List | Glossary On
Versions: 1 2 3 4 5 6 7 8 9 10 11 12 13 14 15 16 17 18 19 20 21 22 23 24 25 26 27 28 29 30 31 32 33 34 35 36 37 38 39 40 41 42 43 44 45 46 47 48 49 50
954
ASUS43 KLSX 051410
RWRMO

WEATHER SUMMARY FOR MISSOURI
NATIONAL WEATHER SERVICE SPRINGFIELD MO
800 AM CST MON DEC 05 2016

NOTE: "FAIR" INDICATES FEW OR NO CLOUDS BELOW 12,000 FEET WITH NO
       SIGNIFICANT WEATHER AND/OR OBSTRUCTIONS TO VISIBILITY.
       CURRENT SKY AND/OR WEATHER CONDITIONS ARE NOT AVAILABLE FOR
       CHILLICOTHE AND FARMINGTON.

MOZ001>031-035>038-043-044-053-054-051500-
...NORTHERN AND WESTERN MISSOURI...

CITY           SKY/WX    TMP DP  RH WIND       PRES   REMARKS
KANSAS CTY INT PTCLDY    32  30  92 S9        29.89F WCI  24
KANSAS C DTWN  CLEAR     35  34  96 S7        29.91S WCI  29
LEE`S SUMMIT   CLEAR     34  33  96 S8        29.92S FOG     WCI  27
ST JOSEPH      CLEAR     32  31  96 S9        29.88F WCI  24
CHILLICOTHE      N/A     30  30 100 CALM      29.94F
KIRKSVILLE     FOG       32  30  92 S9        29.95F VSB<1/4 WCI  24

$$
MOZ066>068-077>081-088>096-101>105-051500-
...SOUTHWEST MISSOURI...

CITY           SKY/WX    TMP DP  RH WIND       PRES   REMARKS
SPRINGFIELD    FOG       32  32 100 SE7       29.94F VSB 1/8 WCI  26
JOPLIN         CLOUDY    32  32 100 SE5       29.94F FOG     WCI  27
BRANSON        FOG       32  32 100 SE6       29.97F VSB 1/8 WCI  26

$$
MOZ032>034-039>042-045>050-055>058-069>072-051500-
...CENTRAL MISSOURI...

CITY           SKY/WX    TMP DP  RH WIND       PRES   REMARKS
COLUMBIA       FOG       29  29 100 SE6       29.99S VSB 1/4 WCI  23
JEFFERSON CITY CLOUDY    27  26  96 CALM      30.01R FOG
ROLLA          CLOUDY    32  32 100 S5        29.98F FOG     WCI  27
SEDALIA        CLEAR     30  28  92 S7        29.98S WCI  23
WHITEMAN AFB   FRZ DRZL  30  30 100 S8        29.95S FOG     WCI  23
WARRENSBURG    CLEAR     32  32 100 SE6       29.95S WCI  26
OSAGE BEACH    CLOUDY    30  30 100 SE7       29.99S WCI  23

$$
MOZ051-052-059>065-051500-
...EAST CENTRAL MISSOURI...

CITY           SKY/WX    TMP DP  RH WIND       PRES   REMARKS
ST LOUIS INTL  CLOUDY    38  33  82 SE7       30.05R
SPIRIT OF STL  CLOUDY    26  26 100 CALM      30.04S FOG
ST CHARLES     CLOUDY    37  35  92 SE6       30.05S

$$
MOZ072>076-082>087-097>100-106>115-051500-
...SOUTH CENTRAL AND SOUTHEAST MISSOURI...

CITY           SKY/WX    TMP DP  RH WIND       PRES   REMARKS
CAPE GIRARDEAU PTCLDY    32  30  92 SE3       30.06S
FARMINGTON     CLOUDY    31  30  96 CALM      30.03S
POPLAR BLUFF   CLOUDY    35  34  96 CALM      30.04F
WEST PLAINS    CLOUDY    32  31  96 SE3       30.00S FOG

$$




USA.gov is the U.S. government's official web portal to all federal, state and local government web resources and services.